Home > Weather > Jujuy > Past weeks

Flag for Argentina Past Weather in Jujuy, Jujuy, Argentina — Yesterday and Last 2 Weeks

Now
59 °F

Mostly cloudy.


Feels Like: 58 °F
Forecast: N/A
Wind: 7 mph from South

Location: Jujuy Aerodrome

Current Time: Jun 24, 2016 at 8:53:06 PM

Latest Report: Jun 24, 2016 at 8:00 PM


Visibility: 6 mi

Pressure: 30.07 "Hg (21.33 "Hg at 2895m altitude)

Humidity: 63%

Dew Point: 46 °F

Location of JujuyLocation

Past Weather in Jujuy — Graph

°F

Jujuy Temperature Yesterday

Maximum temperature yesterday: 66 °F (at 2:00 PM)
Minimum temperature yesterday: 39 °F (at 3:00 AM)
Average temperature yesterday: 51 °F

High & Low Weather Summary for the Past Weeks

 TemperatureHumidityPressure
High66 °F (Jun 14, 4:00 PM)100% (Jun 12, 7:00 AM)30.45 "Hg (Jun 12, 7:00 AM)
Low36 °F (Jun 22, 8:00 AM)45% (Jun 20, 2:00 PM)29.92 "Hg (Jun 24, 5:00 AM)
Average51 °F77%30.24 "Hg
* Reported Jun 9 7:00 PM — Jun 24 7:00 PM, Jujuy, Weather by CustomWeather, © 2016

Note: Actual official high and low records may vary slightly from our data, if they occured in-between our weather recording intervals... More about our weather records

Advertising

Jujuy Weather History for the Previous 24 Hours

Scroll right to see more
 ConditionsComfort  
Time TempWeatherWind HumidityBarometerVisibility
7:00 PM
Fri, Jun 24
57 °FClear.No wind77%30.04 "Hg6 mi
6:00 PM61 °FClear.No wind63%29.98 "Hg6 mi
5:00 PM64 °FClear.9 mph49%29.95 "Hg6 mi
4:00 PM64 °FClear.7 mph49%29.92 "Hg6 mi
3:00 PM64 °FClear.5 mph52%29.92 "Hg6 mi
2:00 PM63 °FClear.3 mph56%29.92 "Hg6 mi
1:00 PM63 °FClear.No wind56%29.95 "Hg5 mi
12:00 PM61 °FClear.3 mph59%29.98 "Hg5 mi
11:00 AM57 °FClear.7 mph72%29.98 "Hg5 mi
10:00 AM52 °FClear.7 mph77%29.98 "Hg6 mi
9:00 AM46 °FClear.8 mph82%29.95 "Hg6 mi
8:00 AM43 °FClear.8 mph93%29.95 "Hg6 mi
7:00 AM43 °FClear.7 mph87%29.92 "Hg10 mi
6:00 AM43 °FPassing clouds.7 mph93%29.92 "HgN/A
5:00 AM43 °FClear.6 mph87%29.92 "Hg10 mi
1:00 AM45 °FClear.8 mph87%30.01 "Hg10 mi
12:00 AM46 °FClear.7 mph87%30.01 "Hg10 mi
11:00 PM
Thu, Jun 23
46 °FClear.6 mph87%30.04 "Hg10 mi
10:00 PM46 °FClear.6 mph87%30.04 "Hg10 mi
9:00 PM48 °FClear.9 mph82%30.01 "Hg10 mi
8:00 PM55 °FClear.6 mph72%30.01 "Hg10 mi
Weather by CustomWeather, © 2016

See weather overviewHow to use our weather pages